User: anonymous   Login
Location: Borea
(45.6167°N, 23.0167°E)
Time: 05:34:34
(UTC+00:00)
Language:

IRIDIUM 160 - Orbit

View from above orbital plane
View from above orbital plane
View from above satellite
View from above satellite

Ground track
Ground track

The orbit data is extracted from the following two-line orbital elements,

1 43569U 18061A   24051.51239034  .00000051  00000-0  11169-4 0  9990
2 43569  86.3935  51.0178 0002394  79.6664 280.4801 14.34217319291876
Epoch (UTC): 20 February 2024 12:17:50
Eccentricity: 0.0002394
inclination: 86.3935°
perigee height: 776 km
apogee height: 779 km
right ascension of ascending node: 51.0178°
argument of perigee: 79.6664°
revolutions per day: 14.34217319
mean anomaly at epoch: 280.4801°
orbit number at epoch: 29187

The dashed part of the orbit path shows where the satellite is in the earth's shadow,  

DLR